�������l�o���
Date,Time,MP-1(��Sv/h),MP-2(��Sv/h),MP-3(��Sv/h),MP-4(��Sv/h),MP-5(��Sv/h),MP-6(��Sv/h),MP-7(��Sv/h),MP-8(��Sv/h),����,����(m/s),���J
2019/11/08,00:00,0.730,1.051,0.681,1.287,0.911,0.417,0.722,0.686,�k��,5.5,��
2019/11/08,00:10,0.731,1.051,0.681,1.289,0.909,0.417,0.724,0.687,�k�k��,4.9,��
2019/11/08,00:20,0.731,1.048,0.680,1.286,0.909,0.416,0.721,0.686,�k�k��,5.5,��
2019/11/08,00:30,0.731,1.049,0.680,1.287,0.910,0.416,0.723,0.685,�k�k��,4.5,��
2019/11/08,00:40,0.730,1.050,0.680,1.287,0.910,0.417,0.722,0.684,�k�k��,5.0,��
2019/11/08,00:50,0.730,1.050,0.680,1.290,0.911,0.418,0.724,0.684,�k�k��,5.8,��
2019/11/08,01:00,0.731,1.052,0.680,1.287,0.906,0.415,0.723,0.686,�k�k��,5.5,��
2019/11/08,01:10,0.730,1.049,0.680,1.287,0.912,0.415,0.724,0.684,�k��,6.3,��
2019/11/08,01:20,0.729,1.050,0.681,1.286,0.911,0.416,0.725,0.686,�k��,5.0,��
2019/11/08,01:30,0.731,1.048,0.681,1.287,0.906,0.415,0.724,0.686,�k�k��,5.2,��
2019/11/08,01:40,0.730,1.051,0.680,1.285,0.910,0.416,0.724,0.684,�k�k��,6.9,��
2019/11/08,01:50,0.729,1.052,0.682,1.288,0.909,0.418,0.724,0.683,�k�k��,7.2,��
2019/11/08,02:00,0.729,1.048,0.680,1.287,0.908,0.417,0.726,0.686,�k�k��,6.3,��
2019/11/08,02:10,0.730,1.050,0.680,1.290,0.908,0.417,0.723,0.685,�k�k��,6.0,��
2019/11/08,02:20,0.731,1.050,0.679,1.287,0.909,0.418,0.723,0.684,�k,5.6,��
2019/11/08,02:30,0.729,1.051,0.678,1.286,0.909,0.416,0.722,0.685,�k,5.2,��
2019/11/08,02:40,0.731,1.050,0.681,1.286,0.909,0.416,0.723,0.686,�k,6.3,��
2019/11/08,02:50,0.731,1.051,0.680,1.287,0.909,0.417,0.723,0.685,�k,6.1,��
2019/11/08,03:00,0.730,1.049,0.681,1.286,0.908,0.416,0.724,0.687,�k�k��,6.6,��
2019/11/08,03:10,0.729,1.051,0.680,1.288,0.910,0.416,0.723,0.686,�k�k��,7.4,��
2019/11/08,03:20,0.730,1.050,0.680,1.286,0.909,0.415,0.723,0.684,�k�k��,8.3,��
2019/11/08,03:30,0.731,1.051,0.682,1.289,0.909,0.416,0.725,0.685,�k��,9.7,��
2019/11/08,03:40,0.731,1.050,0.680,1.288,0.910,0.417,0.723,0.687,�k��,11.9,��
2019/11/08,03:50,0.729,1.050,0.681,1.289,0.909,0.416,0.724,0.685,�k��,10.2,��
2019/11/08,04:00,0.729,1.053,0.679,1.287,0.910,0.415,0.723,0.685,�k��,7.7,��
2019/11/08,04:10,0.731,1.051,0.681,1.289,0.910,0.416,0.724,0.687,�k��,9.1,��
2019/11/08,04:20,0.731,1.049,0.680,1.288,0.909,0.417,0.722,0.686,�k��,9.1,��
2019/11/08,04:30,0.730,1.049,0.680,1.289,0.911,0.416,0.723,0.685,�k��,8.2,��
2019/11/08,04:40,0.728,1.051,0.681,1.289,0.910,0.415,0.721,0.685,�k��,7.1,��
2019/11/08,04:50,0.728,1.051,0.680,1.286,0.907,0.414,0.723,0.685,�k��,6.7,��
2019/11/08,05:00,0.728,1.050,0.679,1.287,0.909,0.414,0.723,0.684,�k��,7.1,��
2019/11/08,05:10,0.729,1.051,0.680,1.287,0.907,0.416,0.724,0.685,�k��,7.4,��
2019/11/08,05:20,0.728,1.050,0.682,1.288,0.909,0.415,0.723,0.685,�k��,7.2,��
2019/11/08,05:30,0.729,1.051,0.679,1.288,0.909,0.414,0.721,0.685,�k��,7.1,��
2019/11/08,05:40,0.728,1.048,0.679,1.285,0.907,0.415,0.724,0.686,�k��,7.1,��
2019/11/08,05:50,0.728,1.048,0.680,1.287,0.910,0.414,0.723,0.686,�k��,6.0,��
2019/11/08,06:00,0.729,1.050,0.679,1.286,0.909,0.413,0.724,0.683,�k��,4.9,��
2019/11/08,06:10,0.725,1.049,0.679,1.285,0.907,0.416,0.724,0.684,�k��,4.7,��
2019/11/08,06:20,0.729,1.048,0.679,1.288,0.908,0.415,0.724,0.683,�k��,5.3,��
2019/11/08,06:30,0.727,1.049,0.679,1.287,0.909,0.415,0.722,0.685,�k��,5.0,��
2019/11/08,06:40,0.728,1.049,0.678,1.286,0.906,0.414,0.723,0.686,�k��,5.5,��
2019/11/08,06:50,0.726,1.048,0.678,1.288,0.909,0.416,0.721,0.686,�k��,4.7,��
2019/11/08,07:00,0.725,1.047,0.678,1.287,0.908,0.414,0.724,0.684,�k��,5.2,��
2019/11/08,07:10,0.730,1.048,0.679,1.285,0.910,0.414,0.723,0.684,�k��,4.9,��
2019/11/08,07:20,0.727,1.049,0.680,1.286,0.910,0.415,0.723,0.684,���k��,4.6,��
2019/11/08,07:30,0.727,1.050,0.676,1.285,0.907,0.416,0.724,0.684,�k��,5.5,��
2019/11/08,07:40,0.727,1.049,0.678,1.285,0.907,0.415,0.724,0.685,�k��,4.0,��
2019/11/08,07:50,0.728,1.047,0.678,1.286,0.907,0.414,0.724,0.685,���k��,3.2,��
2019/11/08,08:00,0.728,1.048,0.678,1.287,0.907,0.415,0.724,0.685,�k�k��,3.1,��
2019/11/08,08:10,0.728,1.049,0.679,1.286,0.908,0.414,0.725,0.684,�k�k��,3.6,��
2019/11/08,08:20,0.729,1.052,0.678,1.286,0.907,0.416,0.723,0.685,�k�k��,3.9,��
2019/11/08,08:30,0.728,1.051,0.679,1.288,0.908,0.416,0.722,0.685,�k,2.5,��
2019/11/08,08:40,0.728,1.047,0.676,1.287,0.908,0.414,0.722,0.685,�k,2.9,��
2019/11/08,08:50,0.727,1.046,0.678,1.288,0.907,0.415,0.720,0.684,�k�k��,2.7,��
2019/11/08,09:00,0.729,1.048,0.677,1.288,0.907,0.415,0.721,0.684,�k��,2.5,��
2019/11/08,09:10,0.730,1.045,0.677,1.287,0.907,0.413,0.723,0.685,�k�k��,4.4,��
2019/11/08,09:20,0.730,1.043,0.677,1.287,0.908,0.416,0.722,0.684,�k�k��,4.5,��
2019/11/08,09:30,0.727,1.044,0.676,1.286,0.910,0.416,0.722,0.684,�k�k��,4.6,��
2019/11/08,09:40,0.725,1.043,0.677,1.287,0.907,0.417,0.721,0.684,�k�k��,3.8,��
2019/11/08,09:50,0.728,1.041,0.679,1.288,0.908,0.416,0.722,0.687,�k��,4.3,��
2019/11/08,10:00,0.725,1.044,0.678,1.289,0.909,0.415,0.722,0.684,�k�k��,4.5,��
2019/11/08,10:10,0.726,1.045,0.677,1.287,0.909,0.416,0.722,0.684,�k�k��,5.2,��
2019/11/08,10:20,0.724,1.043,0.677,1.288,0.908,0.413,0.722,0.684,�k��,3.5,��
2019/11/08,10:30,0.726,1.047,0.678,1.290,0.910,0.415,0.721,0.686,�k�k��,3.8,��
2019/11/08,10:40,0.725,1.046,0.676,1.289,0.908,0.413,0.723,0.686,�k�k��,4.3,��
2019/11/08,10:50,0.727,1.047,0.677,1.288,0.908,0.413,0.725,0.686,�k�k��,3.8,��
2019/11/08,11:00,0.725,1.047,0.679,1.289,0.908,0.413,0.722,0.686,�k��,2.8,��
2019/11/08,11:10,0.727,1.047,0.678,1.290,0.906,0.414,0.721,0.684,�k�k��,2.3,��
2019/11/08,11:20,0.725,1.047,0.681,1.291,0.908,0.412,0.721,0.684,�쐼,1.2,��
2019/11/08,11:30,0.725,1.048,0.678,1.292,0.910,0.414,0.722,0.686,��쐼,1.8,��
2019/11/08,11:40,0.726,1.048,0.678,1.289,0.909,0.415,0.722,0.685,�k�k��,1.9,��
2019/11/08,11:50,0.729,1.049,0.677,1.291,0.910,0.412,0.724,0.686,�k�k��,1.6,��
2019/11/08,12:00,0.730,1.049,0.678,1.290,0.907,0.414,0.722,0.685,�k�k��,1.7,��
2019/11/08,12:10,0.730,1.049,0.678,1.289,0.908,0.414,0.722,0.686,�k,1.1,��
2019/11/08,12:20,0.728,1.050,0.679,1.291,0.912,0.415,0.723,0.685,�k,1.6,��
2019/11/08,12:30,0.729,1.049,0.679,1.290,0.909,0.414,0.724,0.685,�k,2.7,��
2019/11/08,12:40,0.729,1.049,0.679,1.292,0.909,0.416,0.725,0.683,�k,2.1,��
2019/11/08,12:50,0.729,1.050,0.679,1.291,0.910,0.416,0.723,0.685,���k��,4.9,��
2019/11/08,13:00,0.729,1.050,0.680,1.292,0.912,0.416,0.722,0.685,��,5.0,��
2019/11/08,13:10,0.729,1.052,0.678,1.292,0.910,0.415,0.722,0.681,���쐼,6.7,��
2019/11/08,13:20,0.728,1.051,0.680,1.290,0.910,0.413,0.724,0.683,��,7.1,��
2019/11/08,13:30,0.727,1.050,0.678,1.291,0.909,0.415,0.724,0.682,��,7.1,��
2019/11/08,13:40,0.726,1.049,0.679,1.291,0.913,0.414,0.723,0.682,��,6.9,��
2019/11/08,13:50,0.728,1.049,0.679,1.291,0.910,0.414,0.724,0.683,��,6.3,��
2019/11/08,14:00,0.726,1.047,0.678,1.293,0.912,0.415,0.722,0.683,��,7.1,��
2019/11/08,14:10,0.724,1.048,0.678,1.293,0.910,0.414,0.723,0.682,��,6.1,��
2019/11/08,14:20,0.726,1.049,0.679,1.293,0.913,0.415,0.723,0.682,��,5.2,��
2019/11/08,14:30,0.727,1.051,0.679,1.293,0.910,0.414,0.722,0.682,��,4.3,��
2019/11/08,14:40,0.726,1.051,0.677,1.293,0.911,0.416,0.723,0.683,��,4.5,��
2019/11/08,14:50,0.724,1.048,0.679,1.295,0.912,0.417,0.724,0.683,���쐼,3.5,��
2019/11/08,15:00,0.722,1.051,0.680,1.292,0.911,0.418,0.723,0.682,��,3.6,��
2019/11/08,15:10,0.729,1.050,0.678,1.292,0.910,0.418,0.723,0.682,��,3.6,��
2019/11/08,15:20,0.732,1.052,0.679,1.292,0.915,0.419,0.724,0.683,���k��,3.1,��
2019/11/08,15:30,0.731,1.054,0.679,1.290,0.909,0.416,0.722,0.685,�k��,3.8,��
2019/11/08,15:40,0.729,1.054,0.682,1.291,0.911,0.418,0.722,0.686,�k��,3.0,��
2019/11/08,15:50,0.728,1.056,0.680,1.292,0.909,0.417,0.722,0.687,�k��,4.9,��
2019/11/08,16:00,0.730,1.054,0.678,1.292,0.909,0.417,0.723,0.687,�k�k��,4.4,��
2019/11/08,16:10,0.730,1.055,0.680,1.292,0.911,0.418,0.723,0.685,�k��,4.7,��
2019/11/08,16:20,0.730,1.055,0.678,1.294,0.909,0.418,0.723,0.686,�k��,6.3,��
2019/11/08,16:30,0.731,1.057,0.681,1.291,0.913,0.417,0.723,0.685,�k��,6.4,��
2019/11/08,16:40,0.731,1.055,0.682,1.292,0.911,0.416,0.723,0.684,�k�k��,5.7,��
2019/11/08,16:50,0.731,1.057,0.683,1.293,0.911,0.418,0.723,0.686,�k�k��,4.7,��
2019/11/08,17:00,0.732,1.055,0.681,1.291,0.913,0.416,0.724,0.685,�k�k��,4.4,��
2019/11/08,17:10,0.731,1.057,0.681,1.291,0.913,0.417,0.723,0.684,�k��,4.4,��
2019/11/08,17:20,0.731,1.056,0.682,1.293,0.914,0.417,0.724,0.685,�k��,3.4,��
2019/11/08,17:30,0.731,1.055,0.681,1.290,0.913,0.417,0.725,0.686,�k�k��,3.2,��
2019/11/08,17:40,0.732,1.055,0.682,1.290,0.913,0.418,0.724,0.685,�k�k��,3.4,��
2019/11/08,17:50,0.731,1.056,0.682,1.292,0.911,0.417,0.725,0.685,�k�k��,4.3,��
2019/11/08,18:00,0.733,1.054,0.681,1.292,0.913,0.417,0.725,0.686,�k�k��,4.3,��
2019/11/08,18:10,0.731,1.055,0.681,1.292,0.914,0.418,0.725,0.685,�k�k��,5.0,��
2019/11/08,18:20,0.729,1.054,0.683,1.292,0.910,0.416,0.726,0.684,�k�k��,5.0,��
2019/11/08,18:30,0.732,1.054,0.682,1.292,0.912,0.417,0.724,0.685,�k�k��,5.7,��
2019/11/08,18:40,0.730,1.056,0.681,1.292,0.914,0.415,0.725,0.684,�k�k��,5.0,��
2019/11/08,18:50,0.731,1.054,0.682,1.292,0.913,0.416,0.724,0.685,�k�k��,5.5,��
2019/11/08,19:00,0.731,1.053,0.681,1.293,0.912,0.417,0.725,0.685,�k��,4.3,��
2019/11/08,19:10,0.729,1.054,0.681,1.293,0.914,0.418,0.724,0.684,�k��,5.6,��
2019/11/08,19:20,0.731,1.052,0.680,1.294,0.913,0.416,0.723,0.685,�k��,3.9,��
2019/11/08,19:30,0.731,1.052,0.681,1.292,0.911,0.416,0.723,0.685,�k�k��,3.6,��
2019/11/08,19:40,0.728,1.055,0.682,1.290,0.912,0.415,0.724,0.685,�k�k��,4.3,��
2019/11/08,19:50,0.728,1.052,0.681,1.292,0.911,0.414,0.723,0.684,�k�k��,4.6,��
2019/11/08,20:00,0.728,1.054,0.680,1.292,0.913,0.416,0.724,0.684,�k�k��,4.1,��
2019/11/08,20:10,0.728,1.055,0.681,1.288,0.912,0.416,0.724,0.685,�k�k��,3.1,��
2019/11/08,20:20,0.729,1.051,0.680,1.293,0.911,0.416,0.724,0.685,�k�k��,3.1,��
2019/11/08,20:30,0.728,1.052,0.681,1.292,0.913,0.416,0.725,0.684,�k��,2.4,��
2019/11/08,20:40,0.729,1.053,0.681,1.293,0.911,0.415,0.724,0.683,�k��,2.1,��
2019/11/08,20:50,0.728,1.051,0.681,1.291,0.911,0.415,0.724,0.684,�k��,2.7,��
2019/11/08,21:00,0.730,1.052,0.681,1.292,0.912,0.414,0.723,0.686,�k�k��,3.5,��
2019/11/08,21:10,0.731,1.054,0.680,1.291,0.912,0.416,0.722,0.684,�k�k��,4.3,��
2019/11/08,21:20,0.729,1.052,0.681,1.291,0.914,0.414,0.725,0.685,�k�k��,4.9,��
2019/11/08,21:30,0.729,1.054,0.679,1.292,0.913,0.414,0.723,0.684,�k��,5.3,��
2019/11/08,21:40,0.729,1.054,0.678,1.291,0.911,0.416,0.724,0.685,�k�k��,5.5,��
2019/11/08,21:50,0.728,1.054,0.679,1.288,0.913,0.416,0.722,0.683,�k��,5.2,��
2019/11/08,22:00,0.729,1.053,0.682,1.289,0.914,0.414,0.724,0.684,�k��,5.8,��
2019/11/08,22:10,0.730,1.051,0.681,1.290,0.912,0.414,0.723,0.685,�k�k��,5.3,��
2019/11/08,22:20,0.729,1.051,0.681,1.292,0.911,0.415,0.722,0.686,�k�k��,4.9,��
2019/11/08,22:30,0.730,1.053,0.680,1.292,0.913,0.416,0.724,0.684,�k�k��,3.9,��
2019/11/08,22:40,0.731,1.053,0.680,1.290,0.913,0.413,0.723,0.685,�k�k��,4.2,��
2019/11/08,22:50,0.729,1.052,0.680,1.293,0.911,0.414,0.724,0.686,�k�k��,4.4,��
2019/11/08,23:00,0.727,1.051,0.679,1.290,0.911,0.416,0.723,0.684,�k�k��,5.5,��
2019/11/08,23:10,0.728,1.052,0.680,1.292,0.911,0.417,0.723,0.685,�k�k��,4.6,��
2019/11/08,23:20,0.728,1.054,0.680,1.292,0.912,0.414,0.723,0.685,�k�k��,5.5,��
2019/11/08,23:30,0.728,1.052,0.680,1.290,0.912,0.414,0.722,0.685,�k��,4.9,��
2019/11/08,23:40,0.730,1.052,0.680,1.291,0.910,0.416,0.723,0.683,�k�k��,4.9,��
2019/11/08,23:50,0.730,1.052,0.681,1.293,0.912,0.416,0.724,0.684,�k��,3.8,��
